sat.trackr.live / text

‹ back to catalog

HULIANWANG DIGUI-97

NORAD 66413 · 2025-258B

PAYLOAD ACTIVE UNKNOWN

§ Identity

Operator
Country
PRC
Launch date
2025-11-10
Launch site
WSC
Launch vehicle
Mass (kg)
RCS (m²)

External: N2YO · Heavens-Above · Gunter

§ Orbital elements

Epoch: 2026-05-25T00:12:06.251616Z

Period
108.33 min
Inclination
50.0029°
Eccentricity
0.0001058
Mean motion
13.29323118 rev/d
Perigee alt
1,148.5 km
Apogee alt
1,150.1 km
Semi-major
7,527.5 km
B*
9.1142e-5
RAAN
19.0050°
Arg perigee
56.7805°
Mean anomaly
303.3168°
Rev number
2,664

§ Raw data

HULIANWANG DIGUI-971 66413U 25258B   26145.00840569 -.00000082  00000+0  91142-4 0  99932 66413  50.0029  19.0050 0001058  56.7805 303.3168 13.29323118 26643

JSON: /api/v1/satellites/66413 · /tle

For live sub-satellite position, see the globe view (requires WebGL).

§ Visibility from observer

Set your observer location to see the next 7 days of passes ≥ 10°. The values pass through the URL so the page stays shareable.

No JS? Fill the form by hand. The geolocation button needs JavaScript.